Location: Sungai Bunut
(2.6333°N, 113.7333°E)
Time: 01:52:35
(UTC+00:00)

S-56A Canister/Altair - Pass Details

Date: 06 December 2023
Orbit: 640 x 2488 km, 38.9° (Epoch: 24 February)

Event Time Altitude Azimuth Distance (km) Brightness Sun altitude
Rises 00:49:35 0° 239° (WSW) 4,891 11.4 33.8°
Reaches altitude 10° 00:53:26 10° 244° (WSW) 3,590 10.7 34.7°
Maximum altitude 01:01:37 47° 315° (NW) 1,382 8.8 36.4°
Drops below altitude 10° 01:07:11 10° 29° (NNE) 2,460 10.2 37.6°
Sets 01:09:24 0° 36° (NE) 3,241 10.8 38.1°
